Location: Albany
(35.0000°S, 118.0000°E)
Time: 23:54:37
(UTC-05:00)

Cosmos 1626 - Visible Passes

Search period start: 21 December 2014 00:00
Search period end: 31 December 2014 00:00
Orbit: 513 x 516 km, 82.5° (Epoch: 21 December)

Date Brightness Start Highest point End Pass type
(mag) Time Alt. Az. Time Alt. Az. Time Alt. Az.
21 Dec 4.2 09:06:38 10° SSE 09:08:27 20° SE 09:08:27 20° SE visible
21 Dec 5.1 10:42:51 10° SW 10:43:26 12° SW 10:43:26 12° SW visible
22 Dec 4.3 08:51:27 10° SSE 08:53:12 18° SE 08:53:12 18° SE visible
22 Dec 4.9 10:27:02 10° SW 10:28:11 15° SW 10:28:11 15° SW visible
23 Dec 4.4 08:36:21 10° SE 08:37:57 15° ESE 08:37:57 15° ESE visible
23 Dec 4.6 10:11:18 10° SW 10:12:56 19° SW 10:12:56 19° SW visible
24 Dec 4.5 08:21:24 10° SE 08:22:42 13° ESE 08:22:42 13° ESE visible
24 Dec 4.3 09:55:37 10° SSW 09:57:41 24° SW 09:57:41 24° SW visible
25 Dec 4.6 08:06:55 10° ESE 08:07:26 10° ESE 08:07:26 10° ESE visible
25 Dec 3.9 09:39:57 10° SSW 09:42:25 31° SW 09:42:25 31° SW visible
26 Dec 3.4 09:24:19 10° SSW 09:27:09 40° SW 09:27:09 40° SW visible
27 Dec 2.9 09:08:43 10° SSW 09:11:52 53° SW 09:11:52 53° SW visible
28 Dec 2.4 08:53:07 10° S 08:56:36 70° SSW 08:56:36 70° SSW visible
29 Dec 2.1 08:37:32 10° S 08:41:19 73° ESE 08:41:19 73° ESE visible
30 Dec 2.3 08:21:59 10° S 08:25:48 57° E 08:26:03 55° E visible
